Fort Smith, AR

12:03 PM CDT on May 24, 2017 (GMT -0500)
Fort Smith Regional

Weather History for KFSM - August, 2014

Change the Weather History Date:

Tuesday, August 19, 2014

  Actual Average Record
Temperature  
Mean Temperature 83 °F 82 °F  
Max Temperature 96 °F 94 °F 107 °F (2011)
Min Temperature 69 °F 71 °F 57 °F (1976)
Cooling Degree Days 18 17  
Month to date cooling degree days 293 339  
Year to date cooling degree days 1428 1504  
Since 1 June cooling degree days 1150 1260  
Growing Degree Days 32 (Base 50)    
Moisture  
Dew Point 71 °F    
Average Humidity 72    
Maximum Humidity 97    
Minimum Humidity 46    
Precipitation  
Precipitation 0.00 in 0.08 in 3.99 in (1915)
Month to date precipitation 1.39 1.62  
Year to date precipitation 23.26 28.39  
Sea Level Pressure  
Sea Level Pressure 29.86 in    
Wind  
Wind Speed 5 mph (SSE)    
Max Wind Speed 13 mph    
Max Gust Speed 19 mph    
Visibility 10 miles    
Events      
T = Trace of Precipitation, MM = Missing Value Source: NWS Daily Summary

Daily Weather History Graph

Daily Weather History Graph

Search for Another Location

Airport or City:

Trip Planner

Search our weather history database for the weather conditions in past years. The results will help you decide how hot, cold, wet, or windy it might be!

Date:

Astronomy

Aug. 19, 2014 Rise Set
Actual Time 6:40 AM CDT 8:01 PM CDT
Civil Twilight 6:13 AM CDT 8:28 PM CDT
Nautical Twilight 5:41 AM CDT 8:59 PM CDT
Astronomical Twilight 5:08 AM CDT 9:33 PM CDT
Moon 1:36 AM CDT (8/19) 3:54 PM CDT (8/19)
Length of Visible Light 14h 14m
Length of Day
13h 21m
Waning Crescent, 29% of the Moon is Illuminated
Aug 19
Waning Crescent
Aug 25
New
Sep 2
First Quarter
Sep 8
Full
Sep 15
Last Quarter

Hourly Weather History & Observations

Time (CDT) Temp. Heat Index Dew Point Humidity Pressure Visibility Wind Dir Wind Speed Gust Speed Precip Events Conditions
12:53 AM 72.0 °F - 68.0 °F 87% 29.85 in 10.0 mi ENE 3.5 mph - N/A   Clear
1:53 AM 71.1 °F - 68.0 °F 90% 29.84 in 10.0 mi ESE 3.5 mph - N/A   Clear
2:53 AM 71.1 °F - 68.0 °F 90% 29.83 in 10.0 mi East 3.5 mph - N/A   Clear
3:53 AM 69.8 °F - 68.0 °F 94% 29.86 in 10.0 mi ESE 3.5 mph - N/A   Clear
4:53 AM 70.0 °F - 66.9 °F 90% 29.86 in 10.0 mi Calm Calm - N/A   Clear
5:53 AM 69.1 °F - 66.9 °F 93% 29.88 in 10.0 mi NE 3.5 mph - N/A   Clear
6:53 AM 70.0 °F - 68.0 °F 93% 29.89 in 10.0 mi NE 3.5 mph - N/A   Clear
7:53 AM 73.0 °F - 69.1 °F 87% 29.91 in 10.0 mi NE 3.5 mph - N/A   Mostly Cloudy
8:53 AM 75.0 °F - 69.1 °F 82% 29.91 in 10.0 mi Calm Calm - N/A   Clear
9:53 AM 79.0 °F - 71.1 °F 77% 29.90 in 10.0 mi Variable 4.6 mph - N/A   Clear
10:53 AM 86.0 °F 93.8 °F 73.9 °F 67% 29.89 in 10.0 mi SW 5.8 mph - N/A   Clear
11:53 AM 88.0 °F 95.6 °F 73.0 °F 61% 29.88 in 10.0 mi SW 9.2 mph - N/A   Clear
12:53 PM 91.0 °F 99.3 °F 73.0 °F 55% 29.88 in 10.0 mi Variable 3.5 mph - N/A   Clear
1:53 PM 93.9 °F 103.4 °F 73.0 °F 51% 29.87 in 10.0 mi SW 8.1 mph - N/A   Clear
2:53 PM 93.9 °F 105.4 °F 75.0 °F 54% 29.84 in 10.0 mi South 8.1 mph - N/A   Partly Cloudy
3:53 PM 93.9 °F 104.0 °F 73.9 °F 52% 29.83 in 10.0 mi Variable 4.6 mph - N/A   Clear
4:53 PM 93.0 °F 103.2 °F 73.9 °F 54% 29.82 in 10.0 mi SSW 10.4 mph - N/A   Clear
5:53 PM 95.0 °F 103.2 °F 72.0 °F 47% 29.80 in 10.0 mi WSW 6.9 mph - N/A   Scattered Clouds
6:53 PM 91.9 °F 103.2 °F 75.0 °F 58% 29.81 in 10.0 mi South 8.1 mph - N/A   Clear
7:53 PM 84.9 °F 90.7 °F 72.0 °F 65% 29.81 in 10.0 mi South 5.8 mph - N/A   Clear
8:53 PM 84.0 °F 91.2 °F 73.9 °F 72% 29.84 in 10.0 mi South 4.6 mph - N/A   Clear
9:53 PM 84.9 °F 92.1 °F 73.9 °F 69% 29.86 in 10.0 mi SSW 8.1 mph - N/A   Clear
10:53 PM 81.0 °F 86.2 °F 73.9 °F 79% 29.87 in 10.0 mi Calm Calm - N/A   Clear
11:53 PM 81.0 °F 85.8 °F 73.0 °F 77% 29.88 in 10.0 mi Calm Calm - N/A   Clear